N646B KDEN-KASE

Flight info

Callsign N646B
Flight time N/A
Altitude VFR
Route VFR WEST
Aircraft MH60/L-VGD/C

Departure

Time 2026-05-05 00:31
Airport Denver International Airport (KDEN)

Arrival

Time N/A
Airport Aspen-Pitkin County Airport (Sardy Field) (KASE)
Time Latitude Longitude Altitude Speed Heading
2026-05-05 00:28 39.83831 -104.66461 5373 ft 0 kts 108°
2026-05-05 00:29 39.83830 -104.66461 5381 ft 1 kts 117°
2026-05-05 00:30 39.83659 -104.66673 5528 ft 76 kts 238°
2026-05-05 00:30 39.83239 -104.67498 5828 ft 137 kts 239°
2026-05-05 00:30 39.82743 -104.68688 5965 ft 158 kts 248°
2026-05-05 00:30 39.82458 -104.70050 5971 ft 150 kts 258°
2026-05-05 00:31 39.82226 -104.71322 6086 ft 139 kts 258°
2026-05-05 00:31 39.82082 -104.72105 6114 ft 133 kts 258°
2026-05-05 00:31 39.81868 -104.73128 5979 ft 136 kts 259°
2026-05-05 00:31 39.81574 -104.74261 6036 ft 134 kts 258°
2026-05-05 00:32 39.81269 -104.75391 6031 ft 132 kts 258°
2026-05-05 00:32 39.80940 -104.76498 6042 ft 131 kts 258°
2026-05-05 00:32 39.80615 -104.77613 6042 ft 133 kts 258°
2026-05-05 00:32 39.80304 -104.78741 6019 ft 132 kts 258°
2026-05-05 00:33 39.80011 -104.79885 6054 ft 136 kts 258°
2026-05-05 00:33 39.79716 -104.81058 6032 ft 137 kts 258°
2026-05-05 00:33 39.79436 -104.82254 6021 ft 139 kts 258°
2026-05-05 00:33 39.79141 -104.83448 6023 ft 139 kts 258°
2026-05-05 00:34 39.78813 -104.84639 6017 ft 140 kts 258°
2026-05-05 00:34 39.78517 -104.85831 6025 ft 137 kts 258°
2026-05-05 00:34 39.78223 -104.87011 6026 ft 139 kts 258°
2026-05-05 00:34 39.77897 -104.88198 6023 ft 141 kts 258°
2026-05-05 00:35 39.77534 -104.89387 6026 ft 141 kts 254°
2026-05-05 00:35 39.77043 -104.90543 6002 ft 158 kts 248°
2026-05-05 00:35 39.76512 -104.91813 6381 ft 152 kts 245°
2026-05-05 00:35 39.76000 -104.92938 7156 ft 140 kts 244°
2026-05-05 00:36 39.75477 -104.93976 7282 ft 142 kts 243°
2026-05-05 00:36 39.74939 -104.95052 7318 ft 144 kts 243°
2026-05-05 00:36 39.74402 -104.96124 7463 ft 142 kts 243°
2026-05-05 00:36 39.73938 -104.97246 7569 ft 135 kts 243°
2026-05-05 00:37 39.73499 -104.98319 7472 ft 137 kts 243°
2026-05-05 00:37 39.73095 -104.99451 7716 ft 137 kts 249°
2026-05-05 00:37 39.72740 -105.00559 7823 ft 134 kts 249°
2026-05-05 00:37 39.72383 -105.01677 7824 ft 134 kts 249°
2026-05-05 00:38 39.72024 -105.02800 7827 ft 135 kts 249°
2026-05-05 00:38 39.71670 -105.03905 7882 ft 136 kts 249°
2026-05-05 00:38 39.71319 -105.05007 7808 ft 137 kts 249°
2026-05-05 00:38 39.70972 -105.06098 7824 ft 136 kts 249°
2026-05-05 00:39 39.70612 -105.07229 7826 ft 135 kts 249°
2026-05-05 00:39 39.70251 -105.08359 7829 ft 136 kts 249°
2026-05-05 00:39 39.69891 -105.09485 7826 ft 135 kts 249°
2026-05-05 00:39 39.69531 -105.10615 7825 ft 135 kts 249°
2026-05-05 00:40 39.69170 -105.11743 7828 ft 135 kts 249°
2026-05-05 00:40 39.68810 -105.12873 7829 ft 135 kts 249°
2026-05-05 00:40 39.68455 -105.13987 7828 ft 135 kts 249°
2026-05-05 00:40 39.68094 -105.15117 7829 ft 135 kts 249°
2026-05-05 00:41 39.67734 -105.16246 7828 ft 135 kts 249°
2026-05-05 00:41 39.67374 -105.17375 7834 ft 135 kts 249°
2026-05-05 00:41 39.66951 -105.18452 7819 ft 128 kts 248°
2026-05-05 00:41 39.66539 -105.19505 8545 ft 138 kts 249°
2026-05-05 00:42 39.66129 -105.20681 9049 ft 144 kts 250°
2026-05-05 00:42 39.65738 -105.21807 9794 ft 133 kts 250°
2026-05-05 00:42 39.65434 -105.22982 10293 ft 145 kts 257°
2026-05-05 00:42 39.65125 -105.24277 10288 ft 151 kts 256°
2026-05-05 00:43 39.64804 -105.25567 10299 ft 150 kts 256°
2026-05-05 00:43 39.64483 -105.26858 10298 ft 150 kts 256°
2026-05-05 00:43 39.64168 -105.28131 10351 ft 149 kts 255°
2026-05-05 00:43 39.63999 -105.29364 10935 ft 125 kts 267°
2026-05-05 00:44 39.63887 -105.30295 12013 ft 72 kts 266°
2026-05-05 00:44 39.63847 -105.30523 13162 ft 21 kts 278°
2026-05-05 00:44 39.63879 -105.30141 13445 ft 60 kts 270°
2026-05-05 00:44 39.63996 -105.29730 13550 ft 98 kts 176°
2026-05-05 00:45 39.64412 -105.29240 13780 ft 77 kts 173°
2026-05-05 00:45 39.64622 -105.29514 13698 ft 55 kts 209°
2026-05-05 00:45 39.64536 -105.29653 13309 ft 47 kts 68°
2026-05-05 00:45 39.64868 -105.28970 12513 ft 114 kts 60°
2026-05-05 00:46 39.65226 -105.27975 10848 ft 129 kts 79°
2026-05-05 00:46 39.65221 -105.26917 9472 ft 104 kts 110°
2026-05-05 00:46 39.64897 -105.26123 8484 ft 92 kts 127°
2026-05-05 00:46 39.64521 -105.25534 7977 ft 78 kts 137°
2026-05-05 00:47 39.64141 -105.25274 7664 ft 47 kts 156°
2026-05-05 00:47 39.63942 -105.25183 7591 ft 19 kts 170°
2026-05-05 00:47 39.63887 -105.25169 7542 ft 0 kts 162°
2026-05-05 00:48 39.64016 -105.24989 7637 ft 70 kts 64°
2026-05-05 00:48 39.64357 -105.24274 7753 ft 117 kts 71°
2026-05-05 00:48 39.64587 -105.23185 7748 ft 133 kts 76°
2026-05-05 00:48 39.64832 -105.21983 7739 ft 141 kts 76°
2026-05-05 00:49 39.65087 -105.20729 7734 ft 145 kts 76°
2026-05-05 00:49 39.65347 -105.19451 7737 ft 147 kts 76°
2026-05-05 00:49 39.65610 -105.18157 7736 ft 148 kts 76°
2026-05-05 00:49 39.65874 -105.16861 7738 ft 149 kts 76°
2026-05-05 00:50 39.66139 -105.15561 7737 ft 149 kts 76°
2026-05-05 00:50 39.66404 -105.14261 7739 ft 149 kts 76°
2026-05-05 00:50 39.66666 -105.12976 7739 ft 149 kts 76°
2026-05-05 00:50 39.66932 -105.11674 7739 ft 149 kts 76°
2026-05-05 00:51 39.67160 -105.10420 7566 ft 151 kts 76°
2026-05-05 00:51 39.67356 -105.09066 7621 ft 148 kts 76°
2026-05-05 00:51 39.67517 -105.07772 7614 ft 148 kts 76°
2026-05-05 00:51 39.67658 -105.06446 7600 ft 148 kts 76°
2026-05-05 00:52 39.67820 -105.05120 7601 ft 149 kts 76°
2026-05-05 00:52 39.67985 -105.03790 7599 ft 149 kts 76°
2026-05-05 00:52 39.68168 -105.02482 7163 ft 146 kts 74°
2026-05-05 00:52 39.68316 -105.01218 6977 ft 141 kts 78°
2026-05-05 00:53 39.68438 -104.99910 6979 ft 149 kts 78°
2026-05-05 00:53 39.68566 -104.98560 6988 ft 152 kts 77°
2026-05-05 00:53 39.68777 -104.97247 6993 ft 149 kts 66°
2026-05-05 00:53 39.69114 -104.96010 7004 ft 135 kts 66°
2026-05-05 00:54 39.69421 -104.94792 7004 ft 137 kts 66°
2026-05-05 00:54 39.69690 -104.93673 7002 ft 124 kts 66°
2026-05-05 00:54 39.69953 -104.92643 6996 ft 116 kts 64°
2026-05-05 00:54 39.70300 -104.91733 7002 ft 109 kts 59°
2026-05-05 00:55 39.70612 -104.90914 7021 ft 106 kts 60°
2026-05-05 00:55 39.70980 -104.90104 7189 ft 113 kts 60°
2026-05-05 00:55 39.71428 -104.89153 6615 ft 133 kts 57°
2026-05-05 00:55 39.71940 -104.88115 6428 ft 137 kts 57°
2026-05-05 00:56 39.72457 -104.87081 6401 ft 142 kts 57°
2026-05-05 00:56 39.73002 -104.85996 6398 ft 144 kts 57°
2026-05-05 00:56 39.73553 -104.84902 6394 ft 145 kts 57°
2026-05-05 00:56 39.74068 -104.83747 6395 ft 150 kts 62°
2026-05-05 00:57 39.74572 -104.82544 6392 ft 152 kts 62°
2026-05-05 00:57 39.75079 -104.81331 6393 ft 153 kts 62°
2026-05-05 00:57 39.75587 -104.80108 6397 ft 154 kts 62°
2026-05-05 00:57 39.76083 -104.78886 6381 ft 152 kts 62°
2026-05-05 00:58 39.76584 -104.77672 6475 ft 146 kts 62°
2026-05-05 00:58 39.77017 -104.76548 6021 ft 128 kts 66°
2026-05-05 00:58 39.77353 -104.75529 6049 ft 122 kts 66°
2026-05-05 00:58 39.77689 -104.74517 6042 ft 120 kts 65°
2026-05-05 00:59 39.78004 -104.73524 5915 ft 116 kts 67°
2026-05-05 00:59 39.78283 -104.72570 5952 ft 112 kts 65°
2026-05-05 00:59 39.78627 -104.71700 6034 ft 103 kts 53°
2026-05-05 00:59 39.79117 -104.70964 5948 ft 113 kts 37°
2026-05-05 01:00 39.79753 -104.70373 5868 ft 114 kts 23°
2026-05-05 01:00 39.80478 -104.69899 5893 ft 124 kts 26°
2026-05-05 01:00 39.81259 -104.69448 5895 ft 120 kts 19°
2026-05-05 01:00 39.81930 -104.68990 5743 ft 98 kts 37°
2026-05-05 01:01 39.82429 -104.68517 5648 ft 78 kts 36°
2026-05-05 01:01 39.82797 -104.68193 5536 ft 50 kts 38°
2026-05-05 01:01 39.82967 -104.67936 5459 ft 29 kts 55°
2026-05-05 01:01 39.83031 -104.67772 5393 ft 9 kts
2026-05-05 01:02 39.83067 -104.67751 5386 ft 4 kts
2026-05-05 01:02 39.83073 -104.67750 5377 ft 0 kts